Hobart, OK (73651)

3:31 AM CDT on August 26, 2016 (GMT -0500)
Hobart OK | | Change Station

Elev 1572 ft 35.03 °N, 99.10 °W | Updated 14 minutes ago

Overcast
Overcast
67.6 °F
Feels Like 67.6 °F
N
3.7
Wind Variable Wind from NNE

Today
High -- | Low -- °F
--% Chance of Precip.
Yesterday
High -- | Low -- °F
Precip. -- in
Pressure 30.08 in
Visibility 10.0 miles
Clouds Overcast 5000 ft
Dew Point 64 °F
Humidity 89%
Rainfall 0.03 in
Snow Depth Not available.
7:05 AM 8:10 PM
Last Quarter, 37% visible
METAR KHBR 260753Z AUTO 36007KT 10SM OVC050 21/18 A3013 RMK AO2 PK WND 26026/0656 RAB09E32 SLP185 P0000 T02060183 $
Pressure 30.08 in
Visibility 10.0 miles
Clouds Overcast 5000 ft
Dew Point 64 °F
Humidity 89%
Rainfall 0.03 in
Snow Depth Not available.
7:05 AM 8:10 PM
Last Quarter, 37% visible
METAR KHBR 260753Z AUTO 36007KT 10SM OVC050 21/18 A3013 RMK AO2 PK WND 26026/0656 RAB09E32 SLP185 P0000 T02060183 $

10-Day Weather Forecast

Almanac

Astronomy

Aug. 26, 2016 Rise Set
Actual Time
Civil Twilight
Nautical Twilight
Astronomical Twilight
Moon
Length of Visible Light
Length of Day
Tomorrow will be .
, % of the Moon is Illuminated

Today's Extremes

State Highs State Lows

Community

WunderPhotos

Upload Photos

1,935,062 photos uploaded!

WunderBlog® & News

Nearby

Air Quality

  Air Quality AQ Index Pollutant
Not available.

Snow Depth

Station Depth Elevation

Earthquake Activity

City Distance Mag. Time & Date
Minimum magnitude displayed is 2.5.

Coastal Water Temperatures

Place Temperature

Stations

Nearby Weather Stations

Station Location Temp. Windchill Dew Point Humidity Wind Precip. Elev Updated Type
                   

Watches & Warnings

There are currently no watches in effect.